Flag for Germany Weather past 2 weeks in Dinslaken, North Rhine-Westphalia, Germany

Now
47 °F

Overcast.


Feels Like: 47 °F
Forecast: 46 / 56 °F
Wind: 2 mph from Southwest

Location: Essen

Current Time: Oct 23, 2014 at 1:20:32 AM

Latest Report: Oct 23, 2014 at 1:00 AM


Visibility: 8 mi

Pressure: 30.19 "Hg

Humidity: 93%

Dew point: 45 °F

Location of DinslakenLocation

Historic Weather in Dinslaken — Graph

°F

Dinslaken temperature yesterday

Maximum temperature yesterday: 50 °F (at 3:00 PM)
Minimum temperature yesterday: 44 °F (at 9:00 AM)
Average temperature yesterday: 46 °F

Past Weeks' High & Low Weather Summary

 TemperatureHumidityPressure
High73 °F (Oct 19, 3:00 PM)100% (Oct 11, 7:00 AM)30.18 "Hg (Oct 11, 7:00 AM)
Low44 °F (Oct 22, 9:00 AM)55% (Oct 14, 2:00 PM)29.47 "Hg (Oct 21, 4:00 PM)
Average57 °F85%29.85 "Hg
* Reported Midnight between Oct 7 and Oct 8 — Midnight between Oct 22 and Oct 23, Dinslaken, Weather by CustomWeather, © 2014

Note: Actual official high and low records may vary slightly from our data, if they occured in-between our weather recording intervals... More about our weather records

Advertising

Dinslaken weather history for previous 24 hours

 ConditionsComfort  
Time TempWeatherWind HumidityBarometerVisibility
12:00 AM
Oct 23
47 °FOvercast.1 mph94%30.18 "Hg11 mi
11:00 PM
Oct 22
48 °FOvercast.1 mph89%30.18 "Hg17 mi
10:00 PM49 °FOvercast.1 mph82%30.17 "Hg25 mi
9:00 PM49 °FDrizzle. Low clouds.2 mph83%30.15 "Hg19 mi
8:00 PM48 °FLow clouds.3 mph87%30.13 "Hg25 mi
7:00 PM49 °FLow clouds.5 mph85%30.11 "Hg22 mi
6:00 PM50 °FOvercast.5 mph78%30.08 "Hg31 mi
5:00 PM49 °FPartly sunny.6 mph85%30.07 "Hg28 mi
4:00 PM49 °FLight rain. Low clouds.6 mph87%30.06 "Hg7 mi
3:00 PM50 °FOvercast.5 mph80%30.04 "Hg28 mi
2:00 PM48 °FLow clouds.3 mph92%30.04 "Hg15 mi
1:00 PM47 °FLight rain. Low clouds.5 mph91%30.03 "Hg9 mi
12:00 PM46 °FLow clouds.3 mph93%30.02 "Hg13 mi
11:00 AM45 °FLight freezing rain. Low clouds.6 mph97%30.02 "Hg7 mi
10:00 AM44 °FLow clouds.5 mph96%30.01 "Hg17 mi
9:00 AM44 °FLight rain. Low clouds.2 mph94%29.98 "Hg4 mi
8:00 AM45 °FLight freezing rain. Low clouds.5 mph86%29.95 "Hg7 mi
7:00 AM44 °FOvercast.5 mph87%29.93 "Hg16 mi
6:00 AM44 °FOvercast.5 mph89%29.90 "Hg14 mi
5:00 AM44 °FPassing clouds.6 mph90%29.89 "Hg16 mi
4:00 AM45 °FOvercast.5 mph88%29.88 "Hg22 mi
3:00 AM45 °FLight rain. Low clouds.5 mph91%29.87 "Hg7 mi
2:00 AM44 °FDrizzle. Overcast.7 mph93%29.84 "Hg15 mi
1:00 AM45 °FOvercast.6 mph88%29.82 "Hg28 mi
Weather by CustomWeather, © 2014

See weather overviewHow to use our weather pages